{"data":{"norad_id":58347,"intl_designator":"2023-175B","name":"O3B MPOWER F6","alt_names":[],"object_type":"PAYLOAD","status":"ACTIVE","operator":null,"country":"O3B","launch_date":"2023-11-12","launch_site_code":"AFETR","launch_vehicle":null,"mission":null,"orbit_class":"UNKNOWN","rcs_meters":null,"size_class":null,"mass_kg":null,"dimensions":null,"purposes":["comms"],"wikipedia_slug":null,"has_3d_model":false,"image_url":null,"decayed_at":null,"tle_current":{"epoch":"2026-05-24T19:43:37.711200Z","epoch_age_seconds":86388,"freshness":"FRESH","line1":"1 58347U 23175B   26144.82196425 -.00000024  00000+0  00000+0 0  9994","line2":"2 58347   0.0521   5.4627 0004582  51.3774 303.2031  5.00116099 47180","mean_motion":5.00116099,"eccentricity":0.0004582,"inclination_deg":0.0521,"raan_deg":5.4627,"arg_perigee_deg":51.3774,"mean_anomaly_deg":303.2031,"bstar":0,"rev_number":4718,"period_min":287.93314250018,"perigee_km":8059.2604370139,"apogee_km":8072.4969329876,"semimajor_km":14444.015685001,"source":"CELESTRAK","updated_at":"2026-05-25T13:38:14.519999Z"}}}